CW7218 Weather Reports


Display with metric or nautical units.
time (UTC)temp
F
wind
direction
speed
MPH
gust
MPH
rain 1hr
in
rain 24hr
in
rain mn
in
humidity
%
barometer
mb
20260504004016 54 293 2.0 3.0 0.00 0.02 0.00 86 1013.6
20260504003018 54 203 2.0 4.0 0.00 0.02 0.00 86 1013.4
20260504002017 54 225 2.0 4.0 0.00 0.02 0.00 85 1013.3
20260504001018 54 270 3.0 5.0 0.00 0.02 0.00 85 1013.4
20260504000016 54 248 3.0 4.0 0.00 0.02 0.02 85 1013.2
20260503235016 54 0.0 2.0 0.00 0.02 0.02 84 1013.2
20260503234016 54 180 2.0 5.0 0.00 0.02 0.02 85 1013.2
20260503233016 54 248 1.0 6.0 0.00 0.03 0.02 83 1013.3
20260503232016 54 270 2.0 4.0 0.00 0.03 0.02 83 1013.4
20260503231036 54 293 3.0 6.0 0.00 0.03 0.02 84 1013.4
20260503230018 54 0 3.0 6.0 0.00 0.03 0.02 83 1013.3
20260503225018 54 68 5.0 9.0 0.00 0.03 0.02 83 1013.3
20260503224038 54 68 6.0 11.0 0.00 0.03 0.02 83 1013.4
20260503223017 54 45 7.0 13.0 0.00 0.03 0.02 84 1013.5
20260503222037 54 45 6.0 10.0 0.00 0.03 0.02 84 1013.4
20260503221017 54 90 2.0 6.0 0.00 0.03 0.02 84 1013.6
20260503220017 54 270 2.0 4.0 0.00 0.03 0.02 85 1013.9
20260503215037 54 270 3.0 5.0 0.00 0.03 0.02 84 1014.0
20260503214018 54 248 3.0 7.0 0.00 0.03 0.02 84 1014.1
20260503213017 54 180 3.0 5.0 0.00 0.03 0.02 84 1014.1
20260503212018 54 180 2.0 5.0 0.00 0.03 0.02 85 1014.1
20260503211017 54 180 2.0 4.0 0.00 0.03 0.02 85 1014.1
20260503210018 54 180 3.0 5.0 0.00 0.03 0.02 85 1013.9
20260503205017 54 158 3.0 6.0 0.00 0.03 0.02 85 1013.8
20260503204017 55 180 3.0 5.0 0.00 0.03 0.02 85 1013.8
20260503203017 55 180 4.0 7.0 0.00 0.03 0.02 85 1013.8
20260503202017 55 180 4.0 7.0 0.00 0.03 0.02 86 1013.8
20260503201038 55 180 5.0 9.0 0.00 0.03 0.02 85 1013.8
20260503200017 55 180 4.0 7.0 0.00 0.03 0.02 83 1013.5
20260503195037 55 203 4.0 7.0 0.00 0.03 0.02 81 1013.3
20260503194017 55 203 4.0 7.0 0.00 0.03 0.02 81 1013.2
20260503193037 55 180 3.0 6.0 0.00 0.03 0.02 79 1013.1
20260503192117 56 203 4.0 7.0 0.00 0.03 0.02 79 1013.0
20260503191017 56 180 4.0 7.0 0.00 0.03 0.02 78 1013.0
20260503190017 56 203 5.0 8.0 0.00 0.03 0.02 76 1012.8
20260503185037 56 203 4.0 6.0 0.00 0.03 0.02 75 1012.7
20260503184017 56 180 4.0 7.0 0.00 0.03 0.02 73 1012.7
20260503183017 57 248 5.0 12.0 0.00 0.03 0.02 70 1012.6
20260503182017 57 203 5.0 10.0 0.00 0.03 0.02 68 1012.5
20260503181017 57 203 8.0 14.0 0.00 0.03 0.02 68 1012.4
20260503180037 58 180 5.0 13.0 0.00 0.03 0.02 68 1012.4
20260503175017 58 203 5.0 7.0 0.00 0.03 0.02 70 1012.4
20260503174017 59 203 4.0 7.0 0.00 0.03 0.02 70 1012.5
20260503173017 59 203 4.0 7.0 0.00 0.03 0.02 70 1012.6
20260503172017 59 180 3.0 7.0 0.00 0.03 0.02 70 1012.4
20260503171017 59 180 4.0 7.0 0.00 0.03 0.02 69 1012.4
20260503131036 64 180 5.0 11.0 0.00 0.03 0.02 65 1014.2
20260503081017 58 158 2.0 4.0 0.00 0.09 0.02 68 1016.0
20260503072017 56 158 1.0 3.0 0.00 0.21 0.02 80 1015.9
20260503071017 55 0.0 2.0 0.00 0.23 0.02 79 1015.8
20260503055017 52 23 5.0 10.0 0.00 0.25 0.02 86 1015.8
20260503054017 51 45 4.0 6.0 0.00 0.25 0.02 87 1015.8
20260503053017 51 45 5.0 8.0 0.00 0.25 0.02 88 1015.9
20260503052017 51 45 4.0 8.0 0.01 0.25 0.02 88 1015.8
20260503051017 51 68 4.0 7.0 0.01 0.25 0.02 88 1015.8
20260503050017 51 68 4.0 8.0 0.01 0.25 0.02 87 1015.7
20260503045016 51 45 5.0 9.0 0.01 0.25 0.02 87 1015.4
20260503044017 51 23 5.0 8.0 0.01 0.25 0.02 87 1015.4
20260503043017 51 45 4.0 7.0 0.02 0.25 0.02 86 1015.5
20260503042037 52 23 4.0 8.0 0.01 0.24 0.01 85 1015.9
20260503041016 52 23 3.0 7.0 0.01 0.24 0.01 86 1015.9
20260503040019 52 90 2.0 6.0 0.01 0.24 0.01 86 1016.1
20260503035017 52 45 3.0 5.0 0.01 0.24 0.01 86 1016.0
20260503034036 52 45 4.0 7.0 0.01 0.24 0.01 87 1016.1
20260503033016 52 45 4.0 9.0 0.00 0.24 0.00 87 1016.3
20260503032017 52 45 4.0 6.0 0.00 0.24 0.00 86 1016.6
20260503031016 52 45 2.0 5.0 0.00 0.24 0.00 85 1016.6
20260503030016 53 248 2.0 4.0 0.00 0.24 0.00 85 1016.5
20260503025016 53 225 1.0 3.0 0.00 0.24 0.00 86 1016.7
20260503024016 53 90 1.0 3.0 0.00 0.24 0.00 86 1016.7
20260503023016 52 45 3.0 6.0 0.00 0.24 0.00 84 1016.6
20260503022016 52 23 4.0 6.0 0.00 0.24 0.00 85 1016.6
20260503021016 53 270 1.0 3.0 0.00 0.24 0.00 85 1016.8
20260503020016 53 0.0 2.0 0.00 0.24 0.00 84 1016.8
20260503015016 53 203 1.0 4.0 0.00 0.24 0.00 84 1016.9
20260503014016 53 315 1.0 5.0 0.00 0.24 0.00 83 1017.0
20260503013016 53 45 4.0 7.0 0.00 0.24 0.00 82 1016.9
20260503012016 53 45 4.0 7.0 0.00 0.24 0.00 82 1016.8
20260503011016 53 90 4.0 8.0 0.00 0.24 0.00 81 1016.9
20260503010036 53 90 2.0 6.0 0.00 0.24 0.00 81 1016.9
20260503005016 53 90 1.0 4.0 0.00 0.24 0.00 81 1017.0